,,,PA_Meas_PMT16A,,PR_Meas_QMR101_102,,RH_Meas_QMH101,,SR_Meas_QMS101,,TA_Meas_QMH101,,GenWind,,GenWind,
date,time,status,PA,status,PR,status,RH,status,SR,status,TA,status,DirAvg,status,SpdAvg,
2011-04-17, 00:00:04,VALID,1010.44,VALID,0,VALID,104,VALID,0,VALID,24.4717,VALID,76,VALID,0.305859,
2011-04-17, 00:01:04,VALID,1010.45,VALID,0,VALID,104,VALID,0,VALID,24.4522,VALID,76,VALID,0.469141,
2011-04-17, 00:02:04,VALID,1010.43,VALID,0,VALID,104,VALID,0,VALID,24.4522,VALID,76,VALID,0.341016,
2011-04-17, 00:03:04,VALID,1010.41,VALID,0,VALID,104,VALID,0,VALID,24.4717,VALID,76,VALID,0.159375,
2011-04-17, 00:04:04,VALID,1010.43,VALID,0,VALID,104,VALID,0,VALID,24.4522,VALID,76,VALID,0,
2011-04-17, 00:05:04,VALID,1010.43,VALID,0,VALID,104,VALID,0.105969,VALID,24.4522,VALID,76,VALID,0,
2011-04-17, 00:06:04,VALID,1010.43,VALID,0,VALID,104,VALID,0.105969,VALID,24.4717,VALID,76,VALID,0,
2011-04-17, 00:07:04,VALID,1010.41,VALID,0,VALID,104,VALID,0.105969,VALID,24.4717,VALID,76,VALID,0.0285156,
2011-04-17, 00:08:04,VALID,1010.4,VALID,0,VALID,104,VALID,0.105969,VALID,24.4522,VALID,76,VALID,0,
2011-04-17, 00:09:04,VALID,1010.44,VALID,0,VALID,104,VALID,0.105969,VALID,24.4522,VALID,76,VALID,0.233203,
2011-04-17, 00:10:04,VALID,1010.42,VALID,0,VALID,104,VALID,0.105969,VALID,24.4327,VALID,76,VALID,0.398438,
2011-04-17, 00:11:04,VALID,1010.44,VALID,0,VALID,104,VALID,0.105969,VALID,24.4327,VALID,76,VALID,0.315234,
2011-04-17, 00:12:04,VALID,1010.46,VALID,0,VALID,104,VALID,0,VALID,24.4327,VALID,76,VALID,0.457812,
2011-04-17, 00:13:04,VALID,1010.49,VALID,0,VALID,104,VALID,0.105969,VALID,24.454,VALID,76,VALID,0.165625,
2011-04-17, 00:14:04,VALID,1010.49,VALID,0,VALID,104,VALID,0,VALID,24.4132,VALID,76,VALID,0.0257812,
2011-04-17, 00:15:04,VALID,1010.5,VALID,0,VALID,104,VALID,0.105969,VALID,24.3919,VALID,76,VALID,0,
2011-04-17, 00:16:04,VALID,1010.49,VALID,0,VALID,104,VALID,0.105969,VALID,24.4132,VALID,76,VALID,0,
2011-04-17, 00:17:04,VALID,1010.48,VALID,0,VALID,104,VALID,0,VALID,24.3937,VALID,76,VALID,0,
2011-04-17, 00:18:04,VALID,1010.48,VALID,0,VALID,104,VALID,0,VALID,24.3937,VALID,76,VALID,0.0410156,
2011-04-17, 00:19:04,VALID,1010.44,VALID,0,VALID,104,VALID,0,VALID,24.3937,VALID,76,VALID,0.121484,
2011-04-17, 00:20:04,VALID,1010.42,VALID,0,VALID,104,VALID,0.105969,VALID,24.415,VALID,76,VALID,0,
2011-04-17, 00:21:04,VALID,1010.43,VALID,0,VALID,104,VALID,0,VALID,24.3742,VALID,76,VALID,0,
2011-04-17, 00:22:04,VALID,1010.39,VALID,0,VALID,104,VALID,0,VALID,24.3742,VALID,76,VALID,0,
2011-04-17, 00:23:04,VALID,1010.37,VALID,0,VALID,104,VALID,0,VALID,24.3742,VALID,76,VALID,0,
2011-04-17, 00:24:04,VALID,1010.35,VALID,0,VALID,104,VALID,0,VALID,24.3547,VALID,76,VALID,0,
2011-04-17, 00:25:04,VALID,1010.31,VALID,0,VALID,104,VALID,0,VALID,24.3547,VALID,76,VALID,0,
2011-04-17, 00:26:04,VALID,1010.3,VALID,0,VALID,104,VALID,0,VALID,24.3547,VALID,76,VALID,0,
2011-04-17, 00:27:04,VALID,1010.32,VALID,0,VALID,104,VALID,0,VALID,24.3352,VALID,76,VALID,0,
2011-04-17, 00:28:04,VALID,1010.28,VALID,0,VALID,104,VALID,0.105969,VALID,24.3761,VALID,76,VALID,0.207813,
2011-04-17, 00:29:04,VALID,1010.28,VALID,0,VALID,104,VALID,0,VALID,24.3566,VALID,76,VALID,0.400391,
2011-04-17, 00:30:04,VALID,1010.27,VALID,0,VALID,104,VALID,0,VALID,24.3547,VALID,76,VALID,0.359766,
2011-04-17, 00:31:04,VALID,1010.27,VALID,0,VALID,104,VALID,0,VALID,24.3547,VALID,76,VALID,0.225781,
2011-04-17, 00:32:04,VALID,1010.27,VALID,0,VALID,104,VALID,0,VALID,24.3352,VALID,76,VALID,0.0609375,
2011-04-17, 00:33:04,VALID,1010.25,VALID,0,VALID,104,VALID,0,VALID,24.3352,VALID,76,VALID,0,
2011-04-17, 00:34:04,VALID,1010.19,VALID,0,VALID,104,VALID,0.105969,VALID,24.3158,VALID,76,VALID,0,
2011-04-17, 00:35:04,VALID,1010.21,VALID,0,VALID,104,VALID,0,VALID,24.3158,VALID,76,VALID,0,
2011-04-17, 00:36:04,VALID,1010.2,VALID,0,VALID,104,VALID,0.105969,VALID,24.3158,VALID,76,VALID,0,
2011-04-17, 00:37:04,VALID,1010.18,VALID,0,VALID,104,VALID,0.105969,VALID,24.3176,VALID,76,VALID,0,
2011-04-17, 00:38:04,VALID,1010.15,VALID,0,VALID,104,VALID,0,VALID,24.3176,VALID,76,VALID,0,
2011-04-17, 00:39:04,VALID,1010.13,VALID,0,VALID,104,VALID,0.105969,VALID,24.2963,VALID,76,VALID,0,
2011-04-17, 00:40:04,VALID,1010.11,VALID,0,VALID,104,VALID,0.105969,VALID,24.3158,VALID,76,VALID,0,
2011-04-17, 00:41:04,VALID,1010.07,VALID,0,VALID,104,VALID,0.105969,VALID,24.3158,VALID,76,VALID,0,
2011-04-17, 00:42:04,VALID,1010.07,VALID,0,VALID,104,VALID,0,VALID,24.2963,VALID,76,VALID,0,
2011-04-17, 00:43:04,VALID,1010.05,VALID,0,VALID,104,VALID,0.105969,VALID,24.3158,VALID,76,VALID,0,
2011-04-17, 00:44:04,VALID,1010.05,VALID,0,VALID,104,VALID,0.105969,VALID,24.3158,VALID,76,VALID,0,
2011-04-17, 00:45:04,VALID,1010.01,VALID,0,VALID,104,VALID,0,VALID,24.3352,VALID,76,VALID,0,
2011-04-17, 00:46:04,VALID,1009.98,VALID,0,VALID,104,VALID,0,VALID,24.3371,VALID,76,VALID,0,
2011-04-17, 00:47:04,VALID,1009.96,VALID,0,VALID,104,VALID,0.105969,VALID,24.3352,VALID,76,VALID,0.197656,
2011-04-17, 00:48:04,VALID,1009.94,VALID,0,VALID,104,VALID,0.105969,VALID,24.3352,VALID,76,VALID,0.202734,
2011-04-17, 00:49:04,VALID,1009.95,VALID,0,VALID,104,VALID,0,VALID,24.3566,VALID,76,VALID,0.48125,
2011-04-17, 00:50:04,VALID,1009.94,VALID,0,VALID,104,VALID,0,VALID,24.3352,VALID,76,VALID,0.0816406,
2011-04-17, 00:51:04,VALID,1009.95,VALID,0,VALID,104,VALID,0,VALID,24.3158,VALID,76,VALID,0,
2011-04-17, 00:52:04,VALID,1009.94,VALID,0,VALID,104,VALID,0,VALID,24.3371,VALID,76,VALID,0,
2011-04-17, 00:53:04,VALID,1009.9,VALID,0,VALID,104,VALID,0,VALID,24.3352,VALID,76,VALID,0.267188,
2011-04-17, 00:54:04,VALID,1009.89,VALID,0,VALID,104,VALID,0.105969,VALID,24.3352,VALID,76,VALID,0,
2011-04-17, 00:55:04,VALID,1009.88,VALID,0,VALID,104,VALID,0,VALID,24.3352,VALID,76,VALID,0,
2011-04-17, 00:56:04,VALID,1009.89,VALID,0,VALID,104,VALID,0,VALID,24.3566,VALID,76,VALID,0,
2011-04-17, 00:57:04,VALID,1009.86,VALID,0,VALID,104,VALID,0,VALID,24.3566,VALID,76,VALID,0.130469,
2011-04-17, 00:58:04,VALID,1009.85,VALID,0,VALID,104,VALID,0,VALID,24.3761,VALID,76,VALID,0.157813,
2011-04-17, 00:59:04,VALID,1009.82,VALID,0,VALID,104,VALID,0,VALID,24.3761,VALID,76,VALID,0.297266,
2011-04-17, 01:00:04,VALID,1009.83,VALID,0,VALID,104,VALID,0,VALID,24.3761,VALID,76,VALID,0.217578,
2011-04-17, 01:01:04,VALID,1009.8,VALID,0,VALID,104,VALID,0,VALID,24.3352,VALID,76,VALID,0.164453,
2011-04-17, 01:02:04,VALID,1009.79,VALID,0,VALID,104,VALID,0,VALID,24.2963,VALID,76,VALID,0,
2011-04-17, 01:03:04,VALID,1009.77,VALID,0,VALID,104,VALID,0.105969,VALID,24.2963,VALID,76,VALID,0,
2011-04-17, 01:04:04,VALID,1009.78,VALID,0,VALID,104,VALID,0,VALID,24.3371,VALID,76,VALID,0,
2011-04-17, 01:05:04,VALID,1009.79,VALID,0,VALID,104,VALID,0,VALID,24.3176,VALID,76,VALID,0,
2011-04-17, 01:06:04,VALID,1009.77,VALID,0,VALID,104,VALID,0.105969,VALID,24.2963,VALID,76,VALID,0,
2011-04-17, 01:07:04,VALID,1009.77,VALID,0,VALID,104,VALID,0,VALID,24.2963,VALID,76,VALID,0,
2011-04-17, 01:08:04,VALID,1009.75,VALID,0,VALID,104,VALID,0,VALID,24.2963,VALID,76,VALID,0,
2011-04-17, 01:09:04,VALID,1009.75,VALID,0,VALID,104,VALID,0,VALID,24.2573,VALID,76,VALID,0,
2011-04-17, 01:10:04,VALID,1009.77,VALID,0,VALID,104,VALID,0,VALID,24.2786,VALID,76,VALID,0.186328,
2011-04-17, 01:11:04,VALID,1009.77,VALID,0,VALID,104,VALID,0,VALID,24.2981,VALID,76,VALID,0.108203,
2011-04-17, 01:12:04,VALID,1009.74,VALID,0,VALID,104,VALID,0,VALID,24.2768,VALID,76,VALID,0,
2011-04-17, 01:13:04,VALID,1009.73,VALID,0,VALID,104,VALID,0,VALID,24.2573,VALID,76,VALID,0,
2011-04-17, 01:14:04,VALID,1009.72,VALID,0,VALID,104,VALID,0,VALID,24.2786,VALID,76,VALID,0,
2011-04-17, 01:15:04,VALID,1009.75,VALID,0,VALID,104,VALID,0,VALID,24.2786,VALID,76,VALID,0,
2011-04-17, 01:16:04,VALID,1009.75,VALID,0,VALID,104,VALID,0,VALID,24.2573,VALID,76,VALID,0,
2011-04-17, 01:17:04,VALID,1009.77,VALID,0,VALID,104,VALID,0.105969,VALID,24.2573,VALID,76,VALID,0,
2011-04-17, 01:18:04,VALID,1009.75,VALID,0,VALID,104,VALID,0,VALID,24.2786,VALID,76,VALID,0,
2011-04-17, 01:19:04,VALID,1009.77,VALID,0,VALID,104,VALID,0,VALID,24.2786,VALID,76,VALID,0,
2011-04-17, 01:20:04,VALID,1009.75,VALID,0,VALID,104,VALID,0,VALID,24.2378,VALID,76,VALID,0,
2011-04-17, 01:21:04,VALID,1009.77,VALID,0,VALID,104,VALID,0,VALID,24.2378,VALID,76,VALID,0,
2011-04-17, 01:22:04,VALID,1009.75,VALID,0,VALID,104,VALID,0,VALID,24.2591,VALID,76,VALID,0,
2011-04-17, 01:23:04,VALID,1009.77,VALID,0,VALID,104,VALID,0,VALID,24.2396,VALID,76,VALID,0,
2011-04-17, 01:24:04,VALID,1009.76,VALID,0,VALID,104,VALID,0,VALID,24.2396,VALID,76,VALID,0,
2011-04-17, 01:25:04,VALID,1009.74,VALID,0,VALID,104,VALID,0,VALID,24.2396,VALID,76,VALID,0,
2011-04-17, 01:26:04,VALID,1009.76,VALID,0,VALID,104,VALID,0,VALID,24.2396,VALID,76,VALID,0,
2011-04-17, 01:27:04,VALID,1009.73,VALID,0,VALID,104,VALID,0.105969,VALID,24.2378,VALID,76,VALID,0,
2011-04-17, 01:28:04,VALID,1009.74,VALID,0,VALID,104,VALID,0,VALID,24.2573,VALID,76,VALID,0,
2011-04-17, 01:29:04,VALID,1009.76,VALID,0,VALID,104,VALID,0,VALID,24.2786,VALID,76,VALID,0,
2011-04-17, 01:30:04,VALID,1009.73,VALID,0,VALID,104,VALID,0,VALID,24.2786,VALID,76,VALID,0,
2011-04-17, 01:31:04,VALID,1009.77,VALID,0,VALID,104,VALID,0,VALID,24.2786,VALID,76,VALID,0.0324219,
2011-04-17, 01:32:04,VALID,1009.74,VALID,0,VALID,104,VALID,0,VALID,24.2981,VALID,76,VALID,0.470703,
2011-04-17, 01:33:04,VALID,1009.72,VALID,0,VALID,104,VALID,0.105969,VALID,24.2768,VALID,76,VALID,0.260938,
2011-04-17, 01:34:04,VALID,1009.71,VALID,0,VALID,104,VALID,0,VALID,24.2963,VALID,76,VALID,0.00585938,
2011-04-17, 01:35:04,VALID,1009.71,VALID,0,VALID,104,VALID,0,VALID,24.2768,VALID,76,VALID,0,
2011-04-17, 01:36:04,VALID,1009.73,VALID,0,VALID,104,VALID,0,VALID,24.2981,VALID,76,VALID,0.274219,
2011-04-17, 01:37:04,VALID,1009.73,VALID,0,VALID,104,VALID,0,VALID,24.2768,VALID,76,VALID,0.419141,
2011-04-17, 01:38:04,VALID,1009.74,VALID,0,VALID,104,VALID,0,VALID,24.2768,VALID,76,VALID,0.3125,
2011-04-17, 01:39:04,VALID,1009.71,VALID,0,VALID,104,VALID,0,VALID,24.2768,VALID,76,VALID,0.371875,
2011-04-17, 01:40:04,VALID,1009.72,VALID,0,VALID,104,VALID,0,VALID,24.2786,VALID,76,VALID,0.402344,
2011-04-17, 01:41:04,VALID,1009.73,VALID,0,VALID,104,VALID,0.105969,VALID,24.2573,VALID,76,VALID,0.359375,
2011-04-17, 01:42:04,VALID,1009.73,VALID,0,VALID,104,VALID,0,VALID,24.2768,VALID,76,VALID,0.186719,
2011-04-17, 01:43:04,VALID,1009.77,VALID,0,VALID,104,VALID,0,VALID,24.2768,VALID,76,VALID,0,
2011-04-17, 01:44:04,VALID,1009.78,VALID,0,VALID,104,VALID,0,VALID,24.2786,VALID,76,VALID,0,
2011-04-17, 01:45:04,VALID,1009.77,VALID,0,VALID,104,VALID,0,VALID,24.2573,VALID,76,VALID,0,
2011-04-17, 01:46:04,VALID,1009.77,VALID,0,VALID,104,VALID,0,VALID,24.2573,VALID,76,VALID,0,
2011-04-17, 01:47:04,VALID,1009.77,VALID,0,VALID,104,VALID,0,VALID,24.2573,VALID,76,VALID,0.257031,
2011-04-17, 01:48:04,VALID,1009.8,VALID,0,VALID,104,VALID,0,VALID,24.2786,VALID,76,VALID,0.235938,
2011-04-17, 01:49:04,VALID,1009.81,VALID,0,VALID,104,VALID,0,VALID,24.2786,VALID,76,VALID,0.172656,
2011-04-17, 01:50:04,VALID,1009.83,VALID,0,VALID,104,VALID,0.105969,VALID,24.2591,VALID,76,VALID,0,
2011-04-17, 01:51:04,VALID,1009.83,VALID,0,VALID,104,VALID,0,VALID,24.2378,VALID,76,VALID,0.0316406,
2011-04-17, 01:52:04,VALID,1009.84,VALID,0,VALID,104,VALID,0,VALID,24.2378,VALID,76,VALID,0,
2011-04-17, 01:53:04,VALID,1009.83,VALID,0,VALID,104,VALID,0,VALID,24.2378,VALID,76,VALID,0,
2011-04-17, 01:54:04,VALID,1009.85,VALID,0,VALID,104,VALID,0,VALID,24.2591,VALID,76,VALID,0.374219,
2011-04-17, 01:55:04,VALID,1009.85,VALID,0,VALID,104,VALID,0,VALID,24.2183,VALID,76,VALID,0.449219,
2011-04-17, 01:56:04,VALID,1009.83,VALID,0,VALID,104,VALID,0,VALID,24.1988,VALID,76,VALID,0.441406,
2011-04-17, 01:57:04,VALID,1009.84,VALID,0,VALID,104,VALID,0,VALID,24.2202,VALID,76,VALID,0.339063,
2011-04-17, 01:58:04,VALID,1009.83,VALID,0,VALID,104,VALID,0,VALID,24.1793,VALID,76,VALID,0.21875,
2011-04-17, 01:59:04,VALID,1009.82,VALID,0,VALID,104,VALID,0,VALID,24.1812,VALID,76,VALID,0,
2011-04-17, 02:00:04,VALID,1009.82,VALID,0,VALID,104,VALID,0.105969,VALID,24.1599,VALID,76,VALID,0,
2011-04-17, 02:01:04,VALID,1009.81,VALID,0,VALID,104,VALID,0,VALID,24.1617,VALID,76,VALID,0,
2011-04-17, 02:02:04,VALID,1009.82,VALID,0,VALID,104,VALID,0,VALID,24.1404,VALID,76,VALID,0,
2011-04-17, 02:03:04,VALID,1009.8,VALID,0,VALID,104,VALID,0,VALID,24.1617,VALID,76,VALID,0,
2011-04-17, 02:04:04,VALID,1009.81,VALID,0,VALID,104,VALID,0,VALID,24.1422,VALID,76,VALID,0,
2011-04-17, 02:05:04,VALID,1009.82,VALID,0,VALID,104,VALID,0,VALID,24.1209,VALID,76,VALID,0,
2011-04-17, 02:06:04,VALID,1009.78,VALID,0,VALID,104,VALID,0,VALID,24.1617,VALID,76,VALID,0,
2011-04-17, 02:07:04,VALID,1009.76,VALID,0,VALID,104,VALID,0.105969,VALID,24.1404,VALID,76,VALID,0,
2011-04-17, 02:08:04,VALID,1009.75,VALID,0,VALID,104,VALID,0,VALID,24.1617,VALID,76,VALID,0,
2011-04-17, 02:09:04,VALID,1009.72,VALID,0,VALID,104,VALID,0,VALID,24.1404,VALID,76,VALID,0.216797,
2011-04-17, 02:10:04,VALID,1009.72,VALID,0,VALID,104,VALID,0,VALID,24.1404,VALID,76,VALID,0.00195313,
2011-04-17, 02:11:04,VALID,1009.71,VALID,0,VALID,104,VALID,0,VALID,24.1422,VALID,76,VALID,0,
2011-04-17, 02:12:04,VALID,1009.71,VALID,0,VALID,104,VALID,0,VALID,24.1209,VALID,76,VALID,0,
2011-04-17, 02:13:04,VALID,1009.69,VALID,0,VALID,104,VALID,0,VALID,24.1227,VALID,76,VALID,0,
2011-04-17, 02:14:04,VALID,1009.7,VALID,0,VALID,104,VALID,0,VALID,24.1422,VALID,76,VALID,0,
2011-04-17, 02:15:04,VALID,1009.72,VALID,0,VALID,104,VALID,0,VALID,24.1209,VALID,76,VALID,0,
2011-04-17, 02:16:04,VALID,1009.7,VALID,0,VALID,104,VALID,0,VALID,24.1014,VALID,76,VALID,0,
2011-04-17, 02:17:04,VALID,1009.78,VALID,0,VALID,104,VALID,0,VALID,24.1227,VALID,76,VALID,0,
2011-04-17, 02:18:04,VALID,1009.77,VALID,0,VALID,104,VALID,0,VALID,24.1227,VALID,76,VALID,0,
2011-04-17, 02:19:04,VALID,1009.74,VALID,0,VALID,104,VALID,0,VALID,24.1014,VALID,76,VALID,0.000390625,
2011-04-17, 02:20:04,VALID,1009.76,VALID,0,VALID,104,VALID,0,VALID,24.1227,VALID,76,VALID,0.129688,
2011-04-17, 02:21:04,VALID,1009.79,VALID,0,VALID,104,VALID,0,VALID,24.1014,VALID,76,VALID,0,
2011-04-17, 02:22:04,VALID,1009.76,VALID,0,VALID,104,VALID,0,VALID,24.1209,VALID,76,VALID,0.00078125,
2011-04-17, 02:23:04,VALID,1009.77,VALID,0,VALID,104,VALID,0,VALID,24.1014,VALID,76,VALID,0.00117188,
2011-04-17, 02:24:04,VALID,1009.75,VALID,0,VALID,104,VALID,0,VALID,24.1032,VALID,76,VALID,0,
2011-04-17, 02:25:04,VALID,1009.74,VALID,0,VALID,104,VALID,0,VALID,24.1227,VALID,76,VALID,0.00117188,
2011-04-17, 02:26:04,VALID,1009.74,VALID,0,VALID,104,VALID,0,VALID,24.1227,VALID,76,VALID,0.147656,
2011-04-17, 02:27:04,VALID,1009.73,VALID,0,VALID,104,VALID,0,VALID,24.1014,VALID,76,VALID,0,
2011-04-17, 02:28:04,VALID,1009.74,VALID,0,VALID,104,VALID,0,VALID,24.1014,VALID,76,VALID,0.257813,
2011-04-17, 02:29:04,VALID,1009.74,VALID,0,VALID,104,VALID,0,VALID,24.1014,VALID,76,VALID,0.0191406,
2011-04-17, 02:30:04,VALID,1009.7,VALID,0,VALID,104,VALID,0,VALID,24.1032,VALID,76,VALID,0.0863281,
2011-04-17, 02:31:04,VALID,1009.71,VALID,0,VALID,104,VALID,0,VALID,24.1032,VALID,76,VALID,0.198828,
2011-04-17, 02:32:04,VALID,1009.72,VALID,0,VALID,104,VALID,0,VALID,24.1032,VALID,76,VALID,0.0445312,
2011-04-17, 02:33:04,VALID,1009.7,VALID,0,VALID,104,VALID,0,VALID,24.1014,VALID,76,VALID,0.0921875,
2011-04-17, 02:34:04,VALID,1009.73,VALID,0,VALID,104,VALID,0,VALID,24.1014,VALID,76,VALID,0.133203,
2011-04-17, 02:35:04,VALID,1009.7,VALID,0,VALID,104,VALID,0,VALID,24.1014,VALID,76,VALID,0.0425781,
2011-04-17, 02:36:04,VALID,1009.69,VALID,0,VALID,104,VALID,0,VALID,24.1227,VALID,76,VALID,0,
2011-04-17, 02:37:04,VALID,1009.72,VALID,0,VALID,104,VALID,0,VALID,24.1014,VALID,76,VALID,0,
2011-04-17, 02:38:04,VALID,1009.73,VALID,0,VALID,104,VALID,0,VALID,24.1227,VALID,76,VALID,0,
2011-04-17, 02:39:04,VALID,1009.71,VALID,0,VALID,104,VALID,0,VALID,24.1032,VALID,76,VALID,0.114063,
2011-04-17, 02:40:04,VALID,1009.72,VALID,0,VALID,104,VALID,0,VALID,24.1227,VALID,76,VALID,0.292578,
2011-04-17, 02:41:04,VALID,1009.71,VALID,0,VALID,104,VALID,0,VALID,24.1032,VALID,76,VALID,0.306641,
2011-04-17, 02:42:04,VALID,1009.71,VALID,0,VALID,104,VALID,0,VALID,24.1227,VALID,76,VALID,0.213281,
2011-04-17, 02:43:04,VALID,1009.7,VALID,0,VALID,104,VALID,0,VALID,24.1032,VALID,76,VALID,0.3625,
2011-04-17, 02:44:04,VALID,1009.69,VALID,0,VALID,104,VALID,0,VALID,24.1227,VALID,76,VALID,0.392578,
2011-04-17, 02:45:04,VALID,1009.69,VALID,0,VALID,104,VALID,0,VALID,24.1227,VALID,76,VALID,0.366016,
2011-04-17, 02:46:04,VALID,1009.72,VALID,0,VALID,104,VALID,0,VALID,24.1209,VALID,76,VALID,0.410156,
2011-04-17, 02:47:04,VALID,1009.72,VALID,0,VALID,104,VALID,0,VALID,24.1617,VALID,76,VALID,0.363672,
2011-04-17, 02:48:04,VALID,1009.73,VALID,0,VALID,104,VALID,0,VALID,24.1404,VALID,76,VALID,0.301953,
2011-04-17, 02:49:04,VALID,1009.72,VALID,0,VALID,104,VALID,0,VALID,24.1617,VALID,76,VALID,0.189453,
2011-04-17, 02:50:04,VALID,1009.75,VALID,0,VALID,104,VALID,0,VALID,24.1617,VALID,76,VALID,0.194141,
2011-04-17, 02:51:04,VALID,1009.74,VALID,0,VALID,104,VALID,0,VALID,24.1812,VALID,76,VALID,0,
2011-04-17, 02:52:04,VALID,1009.75,VALID,0,VALID,104,VALID,0,VALID,24.1812,VALID,76,VALID,0,
2011-04-17, 02:53:04,VALID,1009.74,VALID,0,VALID,104,VALID,0,VALID,24.1404,VALID,76,VALID,0.103906,
2011-04-17, 02:54:04,VALID,1009.74,VALID,0,VALID,104,VALID,0,VALID,24.1404,VALID,76,VALID,0,
2011-04-17, 02:55:04,VALID,1009.75,VALID,0,VALID,104,VALID,0,VALID,24.1617,VALID,76,VALID,0.114453,
2011-04-17, 02:56:04,VALID,1009.75,VALID,0,VALID,104,VALID,0,VALID,24.1635,VALID,76,VALID,0.511719,
2011-04-17, 02:57:04,VALID,1009.73,VALID,0,VALID,104,VALID,0,VALID,24.1422,VALID,76,VALID,0.402734,
2011-04-17, 02:58:04,VALID,1009.71,VALID,0,VALID,104,VALID,0,VALID,24.1422,VALID,76,VALID,0,
2011-04-17, 02:59:04,VALID,1009.72,VALID,0,VALID,104,VALID,0,VALID,24.1617,VALID,76,VALID,0,
2011-04-17, 03:00:04,VALID,1009.71,VALID,0,VALID,104,VALID,0,VALID,24.1617,VALID,76,VALID,0,
2011-04-17, 03:01:04,VALID,1009.72,VALID,0,VALID,104,VALID,0,VALID,24.1209,VALID,76,VALID,0.0730469,
2011-04-17, 03:02:04,VALID,1009.72,VALID,0,VALID,104,VALID,0,VALID,24.1617,VALID,76,VALID,0,
2011-04-17, 03:03:04,VALID,1009.71,VALID,0,VALID,104,VALID,0,VALID,24.1422,VALID,76,VALID,0,
2011-04-17, 03:04:04,VALID,1009.69,VALID,0,VALID,104,VALID,0,VALID,24.1422,VALID,76,VALID,0,
2011-04-17, 03:05:04,VALID,1009.67,VALID,0,VALID,104,VALID,0,VALID,24.1014,VALID,76,VALID,0,
2011-04-17, 03:06:04,VALID,1009.65,VALID,0,VALID,104,VALID,0,VALID,24.1032,VALID,76,VALID,0,
2011-04-17, 03:07:04,VALID,1009.67,VALID,0,VALID,104,VALID,0,VALID,24.0837,VALID,76,VALID,0,
2011-04-17, 03:08:04,VALID,1009.66,VALID,0,VALID,104,VALID,0,VALID,24.0837,VALID,76,VALID,0.151562,
2011-04-17, 03:09:04,VALID,1009.66,VALID,0,VALID,104,VALID,0,VALID,24.0837,VALID,76,VALID,0.101953,
2011-04-17, 03:10:04,VALID,1009.67,VALID,0,VALID,104,VALID,0,VALID,24.0643,VALID,76,VALID,0,
2011-04-17, 03:11:04,VALID,1009.68,VALID,0,VALID,104,VALID,0,VALID,24.0448,VALID,76,VALID,0,
2011-04-17, 03:12:04,VALID,1009.67,VALID,0,VALID,104,VALID,0,VALID,24.0448,VALID,76,VALID,0,
2011-04-17, 03:13:04,VALID,1009.65,VALID,0,VALID,104,VALID,0,VALID,24.0253,VALID,76,VALID,0,
2011-04-17, 03:14:04,VALID,1009.63,VALID,0,VALID,104,VALID,0,VALID,24.0253,VALID,76,VALID,0,
2011-04-17, 03:15:04,VALID,1009.64,VALID,0,VALID,104,VALID,0,VALID,24.0253,VALID,76,VALID,0,
2011-04-17, 03:16:04,VALID,1009.61,VALID,0,VALID,104,VALID,0,VALID,24.0253,VALID,76,VALID,0.285547,
2011-04-17, 03:17:04,VALID,1009.63,VALID,0,VALID,104,VALID,0,VALID,24.0058,VALID,76,VALID,0.280078,
2011-04-17, 03:18:04,VALID,1009.61,VALID,0,VALID,104,VALID,0,VALID,24.0253,VALID,76,VALID,0.214062,
2011-04-17, 03:19:04,VALID,1009.6,VALID,0,VALID,104,VALID,0,VALID,24.0058,VALID,76,VALID,0,
2011-04-17, 03:20:04,VALID,1009.61,VALID,0,VALID,104,VALID,0,VALID,24.004,VALID,76,VALID,0,
2011-04-17, 03:21:04,VALID,1009.59,VALID,0,VALID,104,VALID,0,VALID,24.004,VALID,76,VALID,0,
2011-04-17, 03:22:04,VALID,1009.6,VALID,0,VALID,104,VALID,0,VALID,24.0448,VALID,76,VALID,0,
2011-04-17, 03:23:04,VALID,1009.63,VALID,0,VALID,104,VALID,0,VALID,24.0253,VALID,76,VALID,0,
2011-04-17, 03:24:04,VALID,1009.61,VALID,0,VALID,104,VALID,0,VALID,24.004,VALID,76,VALID,0,
2011-04-17, 03:25:04,VALID,1009.6,VALID,0,VALID,104,VALID,0,VALID,24.004,VALID,76,VALID,0,
2011-04-17, 03:26:04,VALID,1009.62,VALID,0,VALID,104,VALID,0,VALID,24.0253,VALID,76,VALID,0,
2011-04-17, 03:27:04,VALID,1009.58,VALID,0,VALID,104,VALID,0,VALID,24.0058,VALID,76,VALID,0,
2011-04-17, 03:28:04,VALID,1009.6,VALID,0,VALID,104,VALID,0,VALID,23.9863,VALID,76,VALID,0,
2011-04-17, 03:29:04,VALID,1009.6,VALID,0,VALID,104,VALID,0,VALID,24.0058,VALID,76,VALID,0,
2011-04-17, 03:30:04,VALID,1009.59,VALID,0,VALID,104,VALID,0,VALID,23.9863,VALID,76,VALID,0,
2011-04-17, 03:31:04,VALID,1009.61,VALID,0,VALID,104,VALID,0,VALID,23.9863,VALID,76,VALID,0,
2011-04-17, 03:32:04,VALID,1009.6,VALID,0,VALID,104,VALID,0,VALID,23.9863,VALID,76,VALID,0,
2011-04-17, 03:33:04,VALID,1009.64,VALID,0,VALID,104,VALID,0,VALID,24.0076,VALID,76,VALID,0,
2011-04-17, 03:34:04,VALID,1009.59,VALID,0,VALID,104,VALID,0,VALID,24.0058,VALID,76,VALID,0,
2011-04-17, 03:35:04,VALID,1009.59,VALID,0,VALID,104,VALID,0,VALID,24.0058,VALID,76,VALID,0,
2011-04-17, 03:36:04,VALID,1009.55,VALID,0,VALID,104,VALID,0,VALID,23.9863,VALID,76,VALID,0,
2011-04-17, 03:37:04,VALID,1009.56,VALID,0,VALID,104,VALID,0,VALID,23.9668,VALID,76,VALID,0,
2011-04-17, 03:38:04,VALID,1009.52,VALID,0,VALID,104,VALID,0,VALID,23.9668,VALID,76,VALID,0,
2011-04-17, 03:39:04,VALID,1009.55,VALID,0,VALID,104,VALID,0,VALID,23.9455,VALID,76,VALID,0,
2011-04-17, 03:40:04,VALID,1009.54,VALID,0,VALID,104,VALID,0,VALID,23.9455,VALID,76,VALID,0,
2011-04-17, 03:41:04,VALID,1009.57,VALID,0,VALID,104,VALID,0,VALID,23.9668,VALID,76,VALID,0,
2011-04-17, 03:42:04,VALID,1009.56,VALID,0,VALID,104,VALID,0.105969,VALID,23.9455,VALID,76,VALID,0,
2011-04-17, 03:43:04,VALID,1009.59,VALID,0,VALID,104,VALID,0.105969,VALID,23.965,VALID,13,VALID,0.494922,
2011-04-17, 03:44:04,VALID,1009.6,VALID,0,VALID,104,VALID,0,VALID,23.9845,VALID,13,VALID,0.233203,
2011-04-17, 03:45:04,VALID,1009.61,VALID,0,VALID,104,VALID,0,VALID,24.0058,VALID,13,VALID,0,
2011-04-17, 03:46:04,VALID,1009.61,VALID,0,VALID,104,VALID,0,VALID,23.9863,VALID,13,VALID,0,
2011-04-17, 03:47:04,VALID,1009.61,VALID,0,VALID,104,VALID,0,VALID,23.9845,VALID,13,VALID,0,
2011-04-17, 03:48:04,VALID,1009.57,VALID,0,VALID,104,VALID,0,VALID,23.9863,VALID,13,VALID,0,
2011-04-17, 03:49:04,VALID,1009.59,VALID,0,VALID,104,VALID,0,VALID,23.9863,VALID,13,VALID,0,
2011-04-17, 03:50:04,VALID,1009.58,VALID,0,VALID,104,VALID,0,VALID,23.965,VALID,13,VALID,0,
2011-04-17, 03:51:04,VALID,1009.56,VALID,0,VALID,104,VALID,0,VALID,23.9863,VALID,13,VALID,0,
2011-04-17, 03:52:04,VALID,1009.58,VALID,0,VALID,104,VALID,0,VALID,23.9863,VALID,13,VALID,0,
2011-04-17, 03:53:04,VALID,1009.58,VALID,0,VALID,104,VALID,0,VALID,23.9455,VALID,13,VALID,0,
2011-04-17, 03:54:04,VALID,1009.63,VALID,0,VALID,104,VALID,0,VALID,23.9668,VALID,13,VALID,0,
2011-04-17, 03:55:04,VALID,1009.66,VALID,0,VALID,104,VALID,0,VALID,23.9668,VALID,13,VALID,0,
2011-04-17, 03:56:04,VALID,1009.66,VALID,0,VALID,104,VALID,0,VALID,23.9863,VALID,13,VALID,0,
2011-04-17, 03:57:04,VALID,1009.66,VALID,0,VALID,104,VALID,0,VALID,23.965,VALID,13,VALID,0,
2011-04-17, 03:58:04,VALID,1009.68,VALID,0,VALID,104,VALID,0,VALID,23.9845,VALID,13,VALID,0,
2011-04-17, 03:59:04,VALID,1009.66,VALID,0,VALID,104,VALID,0,VALID,23.9845,VALID,13,VALID,0,
2011-04-17, 04:00:04,VALID,1009.66,VALID,0,VALID,104,VALID,0.105969,VALID,23.9845,VALID,13,VALID,0,
2011-04-17, 04:01:04,VALID,1009.65,VALID,0,VALID,104,VALID,0,VALID,23.9845,VALID,13,VALID,0,
2011-04-17, 04:02:04,VALID,1009.69,VALID,0,VALID,104,VALID,0,VALID,24.004,VALID,13,VALID,0,
2011-04-17, 04:03:04,VALID,1009.69,VALID,0,VALID,104,VALID,0,VALID,23.9845,VALID,13,VALID,0,